GFSCGP_sfc_30mbdewp_009.txt.gz
Dewpoint
11 12 13 14 24 23 29 32 40 41 41 47 47 49 51 54 54 55 56 56 56 57 58 61 63 63 63 65 68 68 68 70 70 71 71 71 71 71 71 71 71 71 70 71
10 11 13 16 26 24 21 27 35 34 43 43 48 49 49 51 52 53 54 54 55 56 57 60 62 63 63 64 66 66 67 68 70 71 70 70 70 70 70 71 71 71 70 70
8 10 16 20 25 26 24 23 24 33 39 47 48 48 50 51 52 52 53 54 55 56 57 59 60 61 63 64 64 65 66 68 70 71 71 71 71 70 69 70 70 69 68 68
9 10 13 23 22 26 23 24 24 33 35 34 45 38 47 50 51 53 54 55 56 58 58 58 60 62 63 63 65 66 67 68 70 71 70 69 69 67 64 66 68 65 62 63
9 12 13 15 19 26 23 23 21 27 33 36 43 36 42 48 49 51 53 53 56 59 58 58 60 62 63 64 66 67 68 69 70 70 70 70 67 63 63 65 64 61 62 63
9 13 15 14 16 22 23 18 17 30 32 32 40 35 36 46 47 49 50 51 56 57 59 59 60 61 63 65 66 68 68 69 71 71 70 69 65 60 63 63 61 59 60 61
11 9 12 18 17 20 19 16 14 23 30 30 33 36 33 43 46 47 48 49 54 56 60 60 61 61 62 64 66 68 69 69 70 70 68 66 61 60 62 61 59 59 61 63
9 6 11 13 14 17 16 15 14 10 18 26 25 34 34 37 43 46 47 48 52 54 59 61 62 62 62 65 66 68 69 69 69 67 65 59 57 57 59 59 59 60 61 62
9 9 12 14 14 15 15 13 14 12 22 19 19 25 26 33 37 43 43 43 50 53 57 60 62 62 62 64 66 67 69 69 67 64 60 56 56 57 56 59 62 58 59 61
10 8 12 12 14 14 13 16 14 17 11 11 18 20 19 28 34 42 41 41 48 52 55 59 61 61 63 65 66 67 69 69 67 62 59 57 58 58 60 62 61 59 60 61
11 10 9 12 12 11 17 13 16 16 18 11 11 16 27 24 32 40 42 42 46 51 55 56 59 59 61 64 65 67 68 68 66 62 60 59 59 60 62 61 61 60 61 60
11 10 7 8 13 15 13 13 14 11 15 19 18 17 27 30 37 42 42 42 46 49 53 55 56 58 58 61 63 66 68 67 65 63 61 59 59 60 61 61 60 60 60 61
12 9 7 7 10 16 14 17 17 19 21 20 17 18 32 35 37 43 43 44 44 45 50 54 55 56 57 60 62 65 68 67 65 64 62 61 61 61 60 61 61 61 60 61
14 11 8 7 8 12 13 16 22 18 15 18 21 19 29 33 34 38 42 45 45 45 47 51 53 55 56 58 62 64 67 67 66 64 63 62 62 62 62 61 61 61 60 60
14 10 10 9 9 13 13 14 21 18 16 16 18 21 26 31 33 35 39 40 42 45 45 48 51 52 55 57 61 64 67 67 67 65 64 62 62 62 62 62 61 61 60 60
19 11 14 10 12 10 10 13 16 20 21 20 20 22 28 32 36 36 35 37 38 42 45 48 51 52 53 56 60 64 66 67 67 66 65 63 62 61 61 61 60 60 60 60
20 16 12 10 14 16 16 16 18 23 24 21 19 21 32 34 34 34 35 36 39 42 48 49 51 54 56 57 60 63 66 67 67 66 65 63 63 62 60 60 61 60 60 61
33 19 18 10 16 11 17 28 24 32 36 38 34 26 29 31 34 38 38 38 39 41 45 50 52 53 57 60 61 64 66 67 66 65 64 64 63 62 61 61 60 60 61 60
38 24 21 15 13 20 32 35 34 25 32 39 37 37 37 38 39 38 37 38 38 38 39 41 48 53 57 62 63 64 65 66 65 64 63 64 63 62 62 61 60 60 61 61
38 37 28 26 15 19 34 43 46 43 29 39 38 39 38 37 34 36 44 38 39 40 42 43 46 49 56 58 64 63 63 64 64 64 63 63 63 62 62 61 61 62 62 61
38 38 34 33 31 35 44 46 45 28 32 43 41 40 38 38 40 39 41 43 45 45 46 49 49 49 53 62 63 62 62 63 63 63 63 63 63 63 63 62 63 63 62 61
38 38 40 39 32 32 45 45 38 42 43 43 44 44 42 44 44 43 45 43 43 43 42 44 48 51 61 62 62 61 61 62 62 61 60 58 60 59 59 59 57 58 61 61
35 43 41 43 39 45 49 47 48 47 44 44 44 45 46 48 48 50 50 51 52 53 53 56 54 53 61 62 62 60 60 61 60 60 58 57 57 56 56 55 51 50 58 59
46 48 42 44 44 46 46 47 48 47 46 46 45 43 43 45 48 44 43 50 56 57 58 61 60 61 61 61 61 60 60 59 59 57 56 55 54 53 54 54 54 56 59 57
46 47 45 47 48 46 45 47 46 43 44 41 39 43 43 42 42 44 49 53 52 53 57 60 60 59 58 59 59 59 59 59 58 57 58 57 56 55 55 55 56 58 54 54
47 48 44 43 49 43 43 45 43 36 37 36 34 34 35 37 38 44 50 57 58 58 59 59 58 57 58 58 58 59 59 59 58 57 56 55 55 57 56 53 50 45 45 46

GFSCGP_sfc_30mbdewp_015.txt.gz
Dewpoint
19 10 8 18 30 31 33 37 37 43 46 46 45 45 52 55 56 56 58 60 60 60 62 64 65 66 67 68 69 70 71 71 72 71 71 71 70 72 72 72 71 72 72 72
16 9 13 18 21 32 37 36 37 43 46 44 45 45 50 54 55 55 56 59 60 60 62 64 65 65 66 67 68 70 71 71 72 71 71 71 71 71 71 72 73 73 72 72
10 7 15 20 21 23 34 36 38 37 43 47 46 42 47 53 55 55 55 56 57 58 59 61 63 64 65 66 68 69 71 71 72 72 72 72 72 72 71 71 71 71 72 72
9 12 12 17 20 22 23 35 39 40 39 36 43 34 43 48 53 54 54 55 55 56 58 59 60 62 64 65 67 69 70 71 72 72 71 70 69 68 69 69 70 71 72 71
17 11 14 13 17 26 24 29 34 38 38 38 43 37 34 49 49 51 54 54 55 55 56 57 58 60 63 64 65 67 70 70 71 72 71 71 70 69 70 68 70 71 70 70
20 16 12 15 21 26 27 27 31 37 35 32 34 37 29 44 46 47 49 53 54 54 55 56 57 59 62 63 64 66 68 70 70 71 71 71 70 70 69 67 66 68 67 66
21 17 15 13 14 25 24 22 22 24 28 23 29 38 33 37 43 44 45 50 52 53 54 55 57 59 61 63 64 65 68 68 69 70 70 71 71 71 70 68 66 66 66 64
21 16 17 14 12 18 22 20 20 19 22 22 33 31 32 38 38 44 48 48 51 52 54 56 58 60 61 62 65 66 67 68 69 69 70 71 71 71 70 69 66 65 65 63
20 19 15 13 15 19 22 21 21 20 22 21 26 34 34 37 38 40 43 47 50 52 54 55 57 59 61 63 64 66 67 68 68 69 70 71 72 71 69 68 67 66 65 62
20 15 13 10 14 18 18 19 16 19 19 17 19 24 18 29 32 38 40 44 47 51 54 55 57 60 61 62 64 66 67 67 68 68 70 70 70 70 70 68 65 65 64 64
22 17 13 12 11 8 15 16 20 19 19 18 17 17 28 25 31 32 37 41 45 50 53 55 59 60 61 62 63 65 66 67 68 69 70 70 70 69 68 66 64 65 64 64
19 18 17 14 14 13 10 13 17 16 21 19 17 16 25 29 30 32 33 39 43 49 52 55 57 59 60 62 62 63 65 65 67 68 69 69 68 66 66 62 62 63 63 64
19 17 17 16 16 14 14 12 14 15 16 21 15 15 29 29 32 33 35 40 47 50 52 55 57 60 62 62 63 64 64 64 65 67 68 68 67 66 64 63 62 63 64 63
23 25 22 18 18 17 14 13 16 13 13 14 18 16 20 22 28 33 38 43 47 50 52 55 57 60 62 64 65 65 64 64 65 66 68 68 67 65 65 62 63 62 63 63
32 27 25 24 22 18 15 10 11 16 16 14 14 21 21 24 28 30 36 45 48 49 52 55 56 59 62 64 65 65 65 66 66 67 68 68 67 66 64 64 63 63 62 62
28 24 24 19 19 18 15 14 12 12 10 16 14 25 28 30 36 38 37 44 48 49 51 54 57 58 60 62 63 64 65 66 67 68 68 68 67 65 65 64 64 63 63 63
37 29 27 24 21 17 15 16 15 16 17 18 17 21 29 29 33 33 35 44 46 50 50 51 55 59 60 60 62 62 64 65 67 68 68 68 67 65 65 64 63 63 61 62
39 37 30 28 22 15 16 17 16 15 16 21 17 23 30 29 32 38 45 45 46 49 51 52 52 54 58 58 60 62 63 66 67 68 68 68 66 65 65 64 63 63 63 61
41 38 35 29 26 24 27 32 19 15 17 23 24 25 33 35 39 42 45 43 45 48 50 51 52 53 56 58 60 62 64 65 67 68 68 68 66 66 65 64 63 63 63 64
43 43 36 34 25 20 39 44 46 45 21 39 40 39 39 38 30 38 45 45 47 49 53 55 55 56 58 60 61 63 64 66 67 68 68 68 67 66 65 64 64 64 65 64
38 40 38 41 36 34 45 47 47 30 27 44 44 43 42 40 44 47 49 51 53 53 53 55 56 58 61 62 64 64 65 66 67 68 68 67 67 66 64 64 65 64 64 64
37 36 37 42 38 35 47 46 42 46 47 46 45 46 48 50 52 52 53 54 56 56 57 58 60 61 63 65 65 65 65 67 67 67 67 67 66 66 65 64 64 64 64 64
36 41 42 43 43 48 48 48 49 50 47 47 48 48 49 49 50 52 54 55 57 59 60 60 60 62 63 64 65 64 64 66 66 66 65 66 66 66 65 64 64 64 64 62
47 47 41 45 46 46 48 46 47 46 45 45 47 47 49 51 54 57 57 58 59 59 59 60 60 60 61 64 64 64 65 65 65 65 65 65 65 64 64 63 62 60 59 58
47 48 45 45 45 47 49 48 46 45 43 42 43 44 44 45 48 53 58 59 60 60 60 61 60 61 61 62 63 64 64 64 64 64 64 64 64 63 59 56 58 59 59 57
43 48 45 42 47 49 47 48 48 45 44 43 43 44 47 46 47 48 52 55 58 60 60 60 61 61 61 62 63 64 64 63 62 61 60 60 59 58 56 55 53 45 46 48

GFSCGP_sfc_30mbdewp_021.txt.gz
Dewpoint
14 10 9 14 18 22 25 26 25 26 30 34 36 36 40 45 45 42 42 46 47 49 52 55 57 57 59 60 63 65 66 69 68 68 68 68 66 66 65 66 67 70 70 70
12 8 7 14 17 19 22 25 26 26 30 31 33 34 39 44 46 45 44 44 46 47 49 53 57 57 59 61 63 67 68 70 70 70 69 66 64 61 63 67 69 69 69 69
5 5 7 11 15 18 19 22 24 24 31 35 34 35 35 39 45 46 46 45 46 46 47 51 55 57 59 60 63 68 70 72 72 71 70 69 68 65 65 61 64 68 68 68
6 6 4 7 12 16 18 22 24 24 35 34 33 30 34 35 37 43 46 46 45 46 47 48 54 57 58 60 63 68 71 72 72 73 69 68 65 63 60 60 60 62 64 64
9 6 5 5 8 15 17 22 25 24 25 32 30 28 30 33 33 36 43 46 46 45 47 47 50 55 57 60 62 65 71 73 73 73 71 68 67 62 61 61 64 63 67 65
11 10 7 4 7 11 14 21 23 23 24 26 30 32 29 34 33 35 37 43 47 46 46 49 50 52 55 58 60 63 70 73 74 73 73 73 70 66 63 63 63 62 63 64
14 11 7 5 6 10 13 18 20 20 21 21 30 28 37 30 34 34 33 35 42 48 45 47 49 51 54 57 60 62 68 73 75 73 73 73 72 71 68 67 64 61 60 61
16 14 13 7 5 7 10 14 19 19 20 20 24 26 28 32 30 32 32 30 36 45 47 45 47 49 52 56 61 63 67 72 74 73 74 74 74 70 68 68 64 60 58 59
14 17 15 11 8 5 8 12 18 18 20 20 20 23 26 31 31 30 31 28 29 42 46 46 46 48 50 55 60 64 66 71 73 73 74 74 74 73 67 68 70 65 62 58
16 14 16 11 10 6 5 12 16 19 19 19 19 19 22 28 29 28 28 27 28 32 43 46 46 48 50 53 58 63 66 71 72 72 74 73 73 74 73 71 70 68 65 62
14 15 16 15 12 10 5 6 14 18 19 18 18 21 21 27 29 28 28 27 26 30 39 45 46 47 51 52 55 60 65 69 71 72 72 72 72 72 73 71 71 70 68 67
15 16 18 17 14 12 8 5 11 20 21 20 19 18 22 21 26 26 25 24 26 27 30 40 45 47 49 53 53 57 61 64 69 70 72 72 73 71 71 72 71 72 70 69
14 17 17 19 15 14 12 9 6 11 17 22 20 20 23 24 23 24 24 24 24 25 30 31 41 46 51 55 57 57 60 60 64 69 70 72 72 72 71 72 72 72 71 69
22 16 17 19 18 13 10 9 7 6 12 16 19 22 23 23 24 24 25 25 26 26 36 40 38 44 51 55 60 61 60 60 62 65 66 69 72 72 71 72 72 73 71 69
22 21 20 19 21 19 12 6 6 5 9 11 14 18 22 23 24 25 24 24 24 25 30 43 45 44 55 57 61 62 63 63 62 65 67 69 72 73 72 71 72 72 71 69
23 22 23 21 19 17 16 15 12 10 6 7 10 13 18 22 24 26 25 24 24 24 24 39 48 49 55 59 62 65 64 64 64 66 67 69 72 72 72 72 71 72 70 68
20 22 23 21 23 22 19 18 17 16 15 12 9 11 13 17 21 24 30 27 27 26 29 26 48 53 57 59 63 64 66 66 66 68 68 70 72 73 73 72 72 72 70 68
20 25 25 25 25 22 23 21 19 18 19 18 17 16 13 14 17 23 26 29 29 29 29 29 44 52 56 58 61 64 65 67 69 69 69 71 72 73 73 72 71 71 69 68
25 24 23 23 24 27 27 30 30 31 28 21 19 19 18 14 12 17 20 24 28 31 33 33 41 49 56 59 63 66 66 67 68 69 70 71 72 73 72 71 70 70 69 68
29 34 30 28 25 24 26 40 42 40 25 26 30 31 24 16 11 17 23 21 23 32 36 38 40 49 55 60 61 66 67 68 69 70 70 71 72 72 71 70 70 70 69 67
21 26 28 29 28 25 41 40 41 31 32 47 46 43 42 36 22 20 26 26 30 38 43 49 52 52 61 62 62 66 66 66 67 67 68 70 70 71 70 70 69 68 68 66
20 24 23 27 27 27 43 41 36 48 50 49 48 45 42 43 36 23 48 49 48 46 48 52 53 56 60 63 66 66 66 67 68 68 69 70 71 69 69 69 69 68 67 65
22 26 25 25 27 46 47 48 48 48 49 49 48 47 45 44 45 48 51 52 53 54 54 56 59 61 61 65 66 66 69 70 69 69 70 70 70 69 69 69 67 66 66 65
28 28 30 41 47 48 46 46 47 47 47 50 49 49 48 50 52 54 54 54 55 56 57 60 61 62 64 67 69 71 70 70 70 70 69 69 69 68 68 67 66 66 65 65
48 49 37 45 47 46 47 47 46 46 46 49 53 55 55 55 55 55 55 54 54 55 56 58 60 62 65 67 67 68 69 69 68 68 67 67 66 66 64 59 61 65 59 61
48 47 47 45 46 47 46 46 46 45 46 46 46 48 50 51 53 54 57 58 55 54 56 57 61 63 65 67 67 68 68 68 67 67 66 66 65 64 63 61 57 50 52 51

GFSCGP_sfc_30mbdewp_024.txt.gz
Dewpoint
21 17 13 14 15 19 19 21 22 26 34 30 37 49 47 47 42 37 42 43 46 48 51 54 55 57 58 61 65 66 68 68 72 71 70 69 69 70 70 70 69 70 71 72
14 14 11 12 15 18 19 21 24 26 37 36 31 44 45 45 42 39 39 42 43 46 49 53 56 57 58 61 64 68 68 72 70 70 70 70 70 69 69 68 69 70 72 72
11 10 8 7 12 17 19 20 24 26 29 30 29 30 31 40 43 43 42 41 43 44 46 53 55 57 58 61 66 68 70 71 71 71 71 71 70 70 67 70 69 71 71 71
12 10 7 5 8 15 17 20 22 23 27 29 33 27 35 37 42 41 41 42 42 44 46 48 54 57 58 61 65 69 71 71 73 71 71 69 68 66 63 64 69 71 70 70
13 8 5 3 5 13 17 20 20 20 24 32 36 32 34 37 40 41 41 41 41 44 44 45 51 55 58 61 64 69 72 73 72 73 72 71 69 65 67 65 67 70 68 67
12 12 6 4 4 8 15 17 18 19 22 26 31 33 33 37 38 38 40 41 44 44 45 46 48 54 58 60 63 66 72 73 73 74 73 72 70 67 65 66 68 66 68 68
14 11 10 6 4 5 7 12 16 17 20 20 28 34 36 37 38 37 38 42 43 45 45 47 48 51 58 59 61 66 72 73 74 74 74 73 73 71 69 70 67 65 65 66
15 13 10 9 7 4 4 8 15 16 19 20 21 20 31 38 38 39 41 44 40 44 46 48 50 51 57 59 61 64 71 73 74 74 74 75 73 73 71 70 68 66 64 65
14 14 15 11 7 5 4 5 10 12 18 19 19 22 23 35 34 39 38 35 35 43 46 47 51 52 54 59 61 64 70 73 74 75 74 75 74 73 72 69 70 68 64 68
15 14 15 13 11 6 4 8 6 9 13 18 19 22 24 32 39 40 35 35 31 39 43 47 47 51 54 58 61 64 68 72 74 75 75 74 75 74 72 72 71 68 69 66
13 15 14 15 15 11 7 4 5 8 12 15 19 21 25 29 37 36 36 34 32 28 40 46 47 49 53 55 60 63 66 71 74 74 75 75 75 75 74 72 72 71 70 67
13 13 16 14 16 14 9 6 5 9 15 15 19 21 22 26 33 36 32 31 31 31 31 40 47 49 51 53 57 61 64 66 72 73 74 75 75 75 74 73 73 72 71 71
16 13 15 14 14 15 11 10 7 5 7 18 18 20 24 29 30 32 32 31 33 35 36 38 43 49 52 53 56 59 62 64 69 72 73 74 74 74 74 74 72 73 72 71
19 14 16 14 17 16 16 13 12 7 5 9 18 22 23 29 32 32 30 29 30 32 35 34 40 49 51 54 56 57 60 62 66 70 71 72 73 73 73 73 74 72 73 71
17 20 19 15 15 18 16 14 12 11 12 10 10 19 24 25 31 30 31 32 31 33 40 44 40 41 53 56 57 58 60 62 63 68 70 72 73 74 74 73 73 73 74 73
19 21 22 17 16 16 18 14 12 12 12 11 11 11 18 24 28 30 31 32 32 34 35 47 49 47 51 58 60 59 60 62 63 65 68 70 72 74 74 73 73 73 73 73
20 20 24 22 19 18 16 19 18 11 10 8 9 14 19 20 22 26 36 31 35 35 33 35 50 53 54 58 62 62 62 64 64 67 68 69 71 73 74 74 73 73 73 73
24 23 23 24 24 20 22 20 18 17 16 13 14 15 16 18 20 22 26 28 33 36 34 36 33 50 57 56 61 65 64 65 67 67 69 70 72 73 74 73 73 72 73 73
20 25 21 23 21 21 21 21 21 18 21 21 19 21 21 21 19 22 23 23 28 31 39 39 35 32 53 55 60 64 67 66 67 68 71 71 73 74 74 74 73 73 73 72
18 30 27 22 23 21 26 23 30 34 29 33 38 34 32 35 32 32 26 25 25 26 30 38 35 31 42 58 60 66 66 68 67 69 69 72 74 74 74 74 74 73 72 71
24 25 23 24 24 23 34 36 37 33 33 46 46 44 42 40 42 46 44 44 24 35 28 33 45 47 57 61 62 67 67 69 69 71 72 73 73 74 75 74 73 72 71 69
25 25 26 29 27 26 37 38 35 43 48 47 47 46 45 45 45 44 43 43 46 48 39 45 49 57 62 64 68 69 69 71 72 72 72 73 74 73 73 72 71 71 70 68
23 23 25 29 30 44 47 48 48 48 48 48 46 44 45 44 44 41 50 50 49 52 54 50 55 65 66 70 70 70 72 72 72 71 72 73 73 72 72 71 70 69 69 66
29 33 24 29 42 45 45 48 47 47 47 52 52 51 50 46 51 53 53 53 54 58 60 64 64 66 68 70 71 72 71 71 71 72 73 72 70 70 70 68 67 67 66 66
48 48 38 30 46 47 46 46 46 48 53 55 56 58 58 59 59 57 57 59 60 61 64 66 68 68 71 72 72 72 72 73 72 70 70 69 68 68 63 58 61 66 61 63
47 49 49 48 52 51 47 47 47 47 48 50 52 54 55 55 56 57 58 60 59 61 63 64 65 67 68 69 69 71 72 71 69 67 67 67 67 65 61 58 56 50 50 51

GFSCGP_sfc_30mbdewp_030.txt.gz
Dewpoint
22 19 18 22 19 18 15 15 16 18 22 39 37 37 41 51 52 53 54 54 55 54 55 56 62 63 62 65 67 67 66 67 67 69 69 69 68 69 70 69 69 70 71 72
19 16 19 21 20 17 15 13 14 17 19 32 39 38 39 46 49 51 52 53 53 54 54 55 59 62 62 64 66 66 67 68 68 68 69 69 69 70 70 70 71 71 70 71
13 16 19 19 19 18 15 13 13 15 19 38 40 40 40 41 45 48 50 51 52 52 52 54 56 60 62 61 65 65 67 69 69 70 70 70 70 70 70 69 69 70 71 71
13 17 18 17 19 19 15 15 14 16 18 27 37 32 40 41 39 41 47 49 50 52 52 53 55 59 60 62 64 64 67 70 70 70 69 69 68 67 68 69 70 70 71 71
19 19 18 18 17 19 16 15 16 16 18 22 34 33 37 42 41 42 44 48 49 50 51 52 55 56 60 61 63 65 66 70 71 70 69 69 68 68 68 68 69 70 71 71
20 20 19 18 18 18 16 12 11 17 18 21 22 33 34 36 40 42 44 44 48 49 51 51 54 55 58 60 63 65 66 69 71 70 70 69 68 68 67 67 68 70 70 70
21 20 16 18 17 14 13 8 6 7 10 14 23 32 31 36 42 43 43 44 45 48 49 50 53 54 57 59 63 65 67 68 69 70 69 69 69 68 67 66 68 69 69 69
20 19 19 14 16 15 10 6 5 5 9 14 19 27 30 35 40 44 44 45 43 44 47 49 52 55 56 59 63 66 66 67 69 68 70 70 69 69 69 68 68 69 69 68
18 18 21 19 16 14 11 5 5 5 15 13 18 24 31 36 38 44 44 45 44 43 44 48 51 54 55 59 63 66 67 66 69 69 68 69 70 70 71 70 68 68 67 67
14 16 20 20 17 14 11 8 3 4 1 2 10 17 19 24 36 39 43 43 44 44 43 45 47 52 56 57 62 66 67 67 68 70 70 69 69 69 71 71 69 66 66 66
12 13 14 20 19 16 12 7 6 3 3 2 4 6 15 18 27 36 43 43 43 43 45 44 46 50 54 57 61 66 68 67 68 69 70 70 70 70 69 72 71 69 66 67
16 10 10 11 15 19 17 12 7 4 4 7 3 5 17 17 22 37 41 42 42 42 44 46 45 46 52 57 59 64 69 68 69 70 70 70 71 71 70 69 71 70 69 67
32 14 9 9 10 12 16 14 10 7 7 6 8 6 13 14 25 36 41 40 40 42 43 45 47 47 50 56 58 63 68 69 69 70 70 71 71 72 71 70 70 71 69 69
30 26 16 12 12 12 13 14 12 7 5 5 6 9 11 14 24 37 40 41 41 41 40 41 45 49 50 56 58 61 65 69 70 71 70 70 71 72 72 72 71 71 71 69
33 26 22 22 18 13 14 14 14 10 6 5 5 6 7 8 16 24 41 41 41 39 38 38 41 48 51 56 58 60 64 68 70 71 71 71 71 72 73 73 72 71 71 71
33 28 26 23 21 14 12 14 16 14 10 6 7 7 8 8 18 20 36 39 38 37 38 41 43 46 52 56 58 60 62 68 69 70 71 72 72 72 72 73 73 72 72 71
32 30 26 21 23 16 12 14 16 17 17 11 8 11 17 16 24 28 32 39 38 37 34 43 46 48 52 55 58 59 62 66 69 70 71 71 72 72 73 73 73 73 71 72
30 30 28 24 22 16 14 15 14 14 16 18 13 13 15 15 16 26 33 37 39 35 36 46 49 49 51 54 57 60 61 64 68 69 70 71 72 72 73 73 73 73 73 71
31 29 26 21 26 22 22 18 14 14 14 21 20 18 18 19 28 37 37 28 18 29 33 37 47 52 53 53 55 58 61 63 64 68 69 70 71 71 73 73 73 73 73 72
26 25 26 24 20 20 21 26 28 27 20 43 28 25 25 25 20 37 46 43 41 41 34 31 41 52 53 55 55 56 59 61 63 64 66 69 71 71 71 73 73 73 73 72
36 36 26 25 22 24 36 33 29 21 28 45 42 39 37 33 33 43 47 44 44 44 46 41 35 42 50 57 58 56 58 59 61 63 64 66 70 70 71 73 73 73 72 73
33 36 32 30 30 24 44 46 25 36 48 47 47 47 46 48 52 53 52 48 46 47 50 47 41 39 40 58 61 58 58 59 61 61 63 66 69 70 71 73 73 73 73 72
34 36 34 39 38 43 45 56 58 57 56 58 54 55 57 58 60 63 64 64 65 66 66 67 52 55 66 54 63 62 61 61 63 64 65 68 70 71 73 73 73 72 71 70
40 44 41 39 41 49 50 53 57 57 57 57 58 59 60 60 62 63 65 66 67 68 69 70 70 69 67 68 63 64 66 65 67 67 72 73 73 73 73 73 72 71 69 68
42 42 43 43 46 51 50 51 55 56 56 56 56 57 58 61 62 63 64 66 67 68 69 70 70 71 71 72 71 72 72 71 72 73 73 72 71 68 63 61 66 68 65 68
46 44 41 45 50 50 49 51 49 49 49 52 53 53 55 57 58 60 62 64 65 65 67 67 68 69 69 69 69 70 72 71 71 68 67 66 63 61 60 60 57 51 58 63

GFSCGP_sfc_30mbdewp_033.txt.gz
Dewpoint
26 26 24 25 22 21 18 17 17 19 29 37 38 41 52 53 53 52 53 55 58 59 61 61 63 63 64 64 65 66 66 67 68 68 69 69 67 68 70 69 69 69 70 71
21 21 24 24 24 21 18 17 17 16 18 21 27 39 51 53 53 53 53 53 54 55 56 59 61 63 63 63 64 65 67 67 68 68 68 69 68 68 68 70 69 70 70 71
19 20 21 20 20 20 19 17 16 16 18 29 38 39 48 53 53 54 54 54 54 54 54 56 60 62 63 62 64 65 66 66 67 67 68 69 69 70 69 69 70 71 71 71
17 20 17 18 18 20 18 19 17 15 15 15 37 35 39 48 51 52 53 54 54 54 54 55 59 61 62 62 64 65 66 66 67 67 67 66 65 65 68 69 69 69 70 71
16 15 15 16 16 19 18 20 17 16 15 16 21 29 37 42 46 48 49 52 53 54 55 54 55 60 61 62 64 65 66 67 67 68 67 67 66 67 68 68 69 69 70 71
16 20 13 15 18 18 20 18 14 16 16 13 15 22 22 40 40 43 44 49 51 52 53 54 54 57 60 61 62 65 66 67 68 68 68 68 67 67 67 67 67 68 70 71
15 14 19 19 17 19 18 16 13 10 11 11 13 19 19 30 41 41 42 43 49 50 52 52 53 54 57 60 61 64 65 67 68 69 68 68 68 67 67 67 67 68 69 69
19 19 17 18 18 17 17 16 12 8 8 10 16 15 18 28 34 42 42 43 44 48 50 52 52 53 55 59 61 63 65 66 68 69 69 69 68 68 67 67 67 68 69 69
20 20 23 21 17 18 14 14 14 9 16 11 14 17 24 27 32 36 41 43 44 46 49 50 52 52 54 57 60 63 64 65 68 69 69 69 69 68 68 68 67 68 69 69
18 19 21 21 19 16 16 11 10 6 6 5 6 14 17 25 26 33 37 43 44 45 46 49 50 51 54 56 59 62 64 65 66 68 68 68 68 68 68 69 68 68 68 68
18 16 15 20 19 18 14 13 8 9 6 4 3 4 14 21 27 31 37 43 44 45 45 47 49 50 53 55 58 62 64 65 65 67 68 68 69 69 70 69 69 68 68 67
32 19 14 16 20 20 17 13 10 6 4 6 4 4 15 16 18 28 33 41 45 45 45 45 46 48 51 54 57 61 64 65 65 67 67 67 67 68 69 70 70 69 67 67
36 26 13 10 11 14 18 17 12 10 9 7 3 5 11 13 16 26 29 36 42 45 46 45 44 46 49 54 56 61 64 65 65 66 67 68 68 69 68 68 70 71 68 66
33 28 24 15 13 14 12 15 16 11 9 9 8 9 13 12 12 15 31 38 40 44 45 45 45 45 47 52 56 60 64 65 65 66 67 67 68 69 69 68 68 70 70 69
32 28 27 27 26 24 21 13 13 14 13 11 11 9 9 13 17 22 26 38 42 43 44 45 46 47 47 51 56 59 63 66 66 66 67 67 68 69 70 70 69 68 70 70
32 27 30 27 24 22 18 17 15 13 14 11 10 9 10 10 12 13 13 22 36 42 42 43 45 47 48 49 55 58 62 66 67 67 68 68 68 69 70 71 71 70 70 70
28 30 29 25 25 24 17 17 16 15 15 15 12 11 9 9 11 11 12 22 29 37 42 41 41 43 48 49 54 57 60 64 67 68 68 69 69 69 70 71 72 71 70 70
29 31 29 26 26 16 18 18 18 15 15 16 13 12 13 11 12 16 21 22 28 36 39 39 42 42 46 50 53 56 59 63 67 68 68 69 69 69 70 71 72 72 71 70
30 27 27 24 24 24 21 24 17 16 16 20 17 16 15 16 23 24 34 33 33 36 39 37 39 42 46 49 54 57 59 61 66 67 68 69 70 70 70 71 71 72 72 71
29 28 27 26 23 19 27 40 42 38 14 16 19 18 18 23 16 17 41 34 28 27 39 38 43 49 50 52 56 58 60 61 65 67 68 69 70 71 71 71 71 72 72 71
27 30 29 29 26 26 35 46 49 26 18 27 34 20 23 21 21 24 45 44 41 44 42 36 41 50 51 53 56 58 60 61 63 66 68 69 70 71 71 71 72 72 72 71
33 32 31 30 30 24 49 48 48 49 55 50 43 40 32 39 41 44 45 43 44 44 51 46 37 40 52 55 54 56 58 60 62 63 64 68 69 70 71 71 72 72 72 71
27 36 34 33 34 46 50 51 52 54 56 56 45 53 51 53 54 56 57 61 63 65 66 67 61 61 65 51 58 55 56 58 59 62 63 65 68 69 70 71 72 72 72 71
33 40 36 37 44 47 50 52 52 54 55 57 60 60 60 60 63 64 65 66 67 68 68 69 69 69 68 70 68 65 64 60 59 60 61 64 65 68 70 71 72 72 71 71
37 41 37 39 46 45 50 51 52 54 53 55 56 57 61 63 64 65 66 66 67 68 68 69 69 69 68 69 68 70 71 68 62 63 63 66 68 69 68 61 66 72 68 71
39 41 37 37 48 48 49 51 52 52 52 53 55 56 57 59 60 62 63 64 65 65 66 66 67 67 68 69 69 69 68 69 70 69 66 65 63 61 60 61 59 57 63 65

GFSCGP_sfc_30mbdewp_036.txt.gz
Dewpoint
31 28 25 25 21 21 22 19 20 21 26 33 33 37 49 54 54 56 58 59 59 60 61 63 64 64 65 66 66 67 67 68 68 69 68 68 68 68 68 69 69 70 70 71
24 24 27 27 24 23 21 20 19 18 18 18 20 32 51 54 54 55 57 58 59 59 60 62 63 63 64 65 65 66 66 67 68 68 68 68 68 68 68 69 69 69 70 71
22 21 27 26 24 23 21 20 19 19 17 22 34 32 47 53 53 54 55 57 58 59 60 61 62 62 63 64 65 65 66 66 68 68 68 69 69 69 68 68 69 69 70 71
20 21 23 22 22 22 21 20 19 17 16 14 34 22 41 51 52 53 53 53 55 56 59 60 61 62 63 64 65 65 66 67 68 68 67 67 67 67 68 68 69 70 70 70
18 19 20 20 21 20 19 20 19 17 15 15 21 27 30 48 51 52 53 54 53 54 56 56 58 61 62 64 64 64 65 67 67 68 67 67 67 67 66 68 68 69 70 71
18 19 21 20 19 20 20 18 17 18 17 15 16 18 19 38 48 51 53 54 54 54 54 55 56 58 61 63 63 64 65 66 67 67 67 67 66 66 66 67 67 68 69 70
17 16 18 17 17 18 18 17 14 12 13 14 16 17 17 32 40 47 51 52 53 55 55 55 55 56 59 61 62 64 65 66 67 67 67 67 67 66 66 66 66 67 68 69
14 14 16 18 15 15 17 16 14 8 10 13 16 14 17 21 39 42 46 48 50 52 54 55 55 55 57 60 62 63 65 65 66 67 67 67 68 67 67 67 67 67 68 69
16 16 21 16 19 14 17 15 15 11 15 9 13 15 19 23 25 37 41 42 44 47 51 53 54 54 55 58 61 62 64 65 66 67 68 68 68 68 67 67 67 67 69 69
19 17 21 17 18 18 15 16 15 13 10 7 7 11 13 21 21 28 35 41 42 44 47 51 52 53 54 56 60 62 63 65 65 67 68 68 68 68 68 68 67 67 68 69
27 18 16 21 19 17 16 13 12 15 11 6 5 6 15 20 21 20 24 35 42 44 44 47 50 52 53 54 58 61 63 64 64 67 68 68 68 69 69 68 68 68 68 69
35 24 18 17 20 21 19 16 11 12 9 10 8 6 14 13 19 26 24 27 40 44 45 46 48 50 52 54 56 59 61 63 64 66 67 68 68 68 68 68 68 69 68 68
32 26 15 16 18 17 18 17 14 13 12 10 8 8 10 12 14 17 29 33 39 43 46 46 47 49 51 53 55 58 60 62 64 65 66 67 67 68 68 68 69 69 68 68
34 29 24 20 22 25 21 18 17 13 12 11 10 9 10 9 10 12 17 25 27 34 42 47 46 47 50 52 55 57 60 61 63 64 66 66 67 68 68 69 69 70 69 68
29 25 28 28 27 27 25 23 21 17 13 11 12 12 12 12 11 11 15 25 33 36 40 45 46 46 48 52 55 57 60 62 63 64 65 66 67 67 68 68 68 70 70 69
30 23 29 25 25 26 24 25 23 20 18 16 14 12 14 13 15 17 19 22 29 35 39 44 47 46 47 50 54 57 60 62 64 64 64 66 67 67 68 68 68 68 69 70
28 27 26 19 26 25 20 19 19 19 17 16 14 16 13 13 13 14 15 18 20 26 33 40 45 47 48 48 53 56 59 63 64 65 65 66 67 67 68 69 69 68 68 69
28 30 29 23 24 17 20 24 25 18 17 18 17 16 16 14 15 14 16 15 16 19 30 37 42 45 48 49 50 55 58 62 65 65 65 66 67 67 68 68 69 69 69 68
30 28 24 22 22 20 22 28 38 39 31 21 18 16 18 16 16 18 23 20 16 18 29 35 41 43 46 48 51 54 58 61 65 66 66 67 68 68 68 68 69 70 70 69
30 28 23 26 22 15 28 39 46 47 36 33 33 19 17 18 15 17 22 32 29 33 36 38 41 44 44 46 51 55 57 61 64 66 67 68 68 68 68 69 69 70 70 70
26 27 25 23 26 27 28 46 51 34 26 51 53 53 28 20 19 19 25 33 35 32 30 37 43 46 47 50 53 55 58 60 62 65 67 68 69 69 69 69 69 70 70 71
26 26 27 27 26 21 36 45 41 45 52 53 54 55 54 27 23 29 37 41 41 46 48 40 37 44 52 55 57 57 58 60 62 64 66 68 69 70 70 70 70 70 70 71
25 29 31 27 25 34 46 39 50 53 53 54 55 57 56 39 35 42 49 56 62 65 65 63 64 67 68 62 58 57 59 60 61 63 64 67 69 69 70 70 70 71 71 71
33 36 34 34 35 35 46 51 52 53 53 54 56 59 57 51 58 61 64 66 67 67 68 67 67 67 68 69 69 68 67 65 59 59 62 64 66 69 70 70 71 71 71 71
33 33 33 36 38 42 49 51 52 53 54 54 59 59 63 64 64 65 65 65 65 66 66 66 66 66 68 69 69 70 70 66 62 63 63 65 66 63 61 59 61 65 58 66
34 32 33 32 39 41 47 51 53 53 54 56 59 60 61 62 62 63 62 63 64 64 64 64 64 64 65 66 67 68 68 69 66 65 64 63 62 62 63 62 59 59 59 61